Location: Aalen
(48.8330°N, 10.1000°E)
Time: 15:19:53
(UTC+02:00)

UNISAT 6 - Pass Details

Date: 09 April 2023
Orbit: 600 x 680 km, 97.7° (Epoch: 28 May)

Event Time Altitude Azimuth Distance (km) Brightness Sun altitude
Rises 05:32:40 0° 152° (SSE) 2,962 ? -11.6°
Reaches altitude 10° 05:34:53 10° 148° (SSE) 2,067 ? -11.2°
Maximum altitude 05:39:18 56° 71° (ENE) 801 ? -10.6°
Drops below altitude 10° 05:43:50 10° 354° (N) 2,122 ? -9.9°
Sets 05:46:08 0° 351° (N) 3,048 ? -9.5°
